KOFP

Details ICAO KOFP
Name HANOVER CO MUNI
Region United States
Timezone America/New_York (UTC-5.0)
Plans Departing 5
Arriving 9
Stats Elevation 208 ft / 63 m (AMSL)
Location 37.708939° -77.436641°
Runways 1
Magnetic Variation 10.351° W
Sunrise 2017-11-20 11:56:49 UTC / 2017-11-20 06:56:49 Local
Sunset 2017-11-20 21:57:00 UTC / 2017-11-20 16:57:00 Local
Advertisement - Login to hide

Runways

ID Width Length Bearing (true) Bearing (mag) Surface Threshold Offset Overrun Length
16 100 ft / 30 m 5,406 ft / 1,648 m 149.81° 160.16° Asphalt 0 ft / 0 m 0 ft / 0 m
34 100 ft / 30 m 5,406 ft / 1,648 m 329.81° 340.16° Asphalt 0 ft / 0 m 0 ft / 0 m

Approach Navaids

Runway Type Ident Frequency Range Bearing (true) Bearing (mag) Slope Elevation
16 Localiser IOFP 109.70 MHz 18 nm / 33 km 150.00° 160.35° - 208 ft / 63 m (AMSL)
16 DME IOFP 109.70 MHz 18 nm / 33 km - - - 208 ft / 63 m (AMSL)

Map

Weather


0- 5 10 15 20 25 30 35+ Temperature / ° C

Clouds and Precipitation
Forecast for 2017-11-20 18:00 UTC. Updated 2 hours ago

Ground ~20,000 ft ~40,000 ft Winds

METAR

KOFP 201454Z AUTO 27006KT 10SM CLR 07/M04 A3025 RMK AO2 SLP244 T00721039 51021

TAF

Not found

Frequencies

Recorded 119.02 MHz ASOS
Clearance 125.40 MHz POTOMAC CLNC DEL
Departure 134.70 MHz POTOMAC DEP
Unicom 122.70 MHz CTAF/UNICOM
Approach 134.70 MHz POTOMAC APP
Warning: Do not use this data for real-world aviation or navigation. No guarantee of current accuracy is given.